Regional Weather Roundup
Issued by NWS

Home | Current Version | Previous Version | Graphics & Text | Print | Product List | Glossary On
Versions: 1 2 3 4 5 6 7 8 9 10 11 12 13 14 15 16 17 18 19 20 21 22 23 24 25 26 27 28 29 30 31 32 33 34 35 36 37 38 39 40 41 42 43 44 45 46 47 48 49 50
561
ASUS45 KBOI 220410
RWRID

IDAHO REGIONAL WEATHER ROUNDUP
NATIONAL WEATHER SERVICE BOISE ID
900 PM MST SAT JAN 21 2017

NOTE: "FAIR" INDICATES FEW OR NO CLOUDS BELOW 12000 FEET
WITH NO SIGNIFICANT WEATHER AND/OR OBSTRUCTIONS TO VISIBILITY

IDZ012-014-220500-
SOUTHWEST IDAHO


CITY           SKY/WX    TMP DP  RH WIND       PRES   REMARKS
BOISE          MOCLDY    36  31  82 SE13      29.77S WCI  27
CALDWELL       PTCLDY    35  31  85 E9        29.78R WCI  28
MOUNTAIN HOME  CLOUDY    33  33 100 E8        29.80R WCI  25
$$

IDZ016-017-220500-
SOUTHCENTRAL IDAHO


CITY           SKY/WX    TMP DP  RH WIND       PRES   REMARKS
BURLEY         CLOUDY    35  26  69 S14       29.81R WCI  26
JEROME         CLOUDY    33  26  75 S7        29.82R WCI  27
TWIN FALLS     MOCLDY    32  22  66 S12       29.81R WCI  23
$$

IDZ019>023-220500-
SOUTHEAST IDAHO


CITY           SKY/WX    TMP DP  RH WIND       PRES   REMARKS
IDAHO FALLS    CLOUDY    28  25  88 S13       29.80R WCI  17
POCATELLO      CLOUDY    31  24  75 S13       29.82R WCI  21
REXBURG        CLOUDY    29  26  89 SW15      29.77R WCI  18
$$

IDZ006-010-011-018-031-032-220500-
CENTRAL IDAHO MOUNTAINS


CITY           SKY/WX    TMP DP  RH WIND       PRES   REMARKS
MCCALL         LGT SNOW  29  25  85 SE7       29.68R FOG     WCI  22
STANLEY          N/A     22  18  85 CALM      29.72R
SALMON         CLOUDY    12   9  85 CALM      29.78R
CHALLIS        PTCLDY     5   4  95 CALM      29.76R
$$

IDZ002-004-006-007-026-220500-
NORTHERN IDAHO


CITY           SKY/WX    TMP DP  RH WIND       PRES   REMARKS
LEWISTON       MOCLDY    39  30  70 CALM      29.68R
LOWELL           N/A     32  30  92 CALM      29.76R
COEUR D`ALENE  CLOUDY    34  32  92 NE14      29.67R WCI  25
MULLAN PASS    CLOUDY    26  23  88 S7        29.61R FOG     WCI  18
$$




USA.gov is the U.S. government's official web portal to all federal, state and local government web resources and services.